Tracking 30101 objects as of 14-Dec-2024
HD Live streaming from Space Station
objects crossing your sky now

ARIANE 5 R/B

Track ARIANE 5 R/B now!


NORAD ID: 36832
Int'l Code: 2010-037C
Perigee: 239.5 km
Apogee: 31,819.2 km
Inclination: 2.2 °
Period: 556.1 minutes
Semi major axis: 22400 km
RCS: 25.4404 m2 (large)
Launch date: August 4, 2010
Source: France (FR)
Launch site: FRENCH GUIANA (FRGUI)

Note: This is a ROCKET BODY
Your satellite tracking list
Your tracking list is empty




NASA's NSSDC Master Catalog

Two Line Element Set (TLE):
1 36832U 10037C   24348.55523778  .00009631  00000-0  15625-2 0  9996
2 36832   2.1965 254.5964 7048924 202.4669  98.6566  2.58952630127713
Source of the keplerian elements: AFSPC